Regional Weather Roundup
Issued by NWS Jackson, KY

Home | Current Version | Previous Version | Graphics & Text | Print | Product List | Glossary On
Versions: 1 2 3 4 5 6 7 8 9 10 11 12 13 14 15 16 17 18 19 20 21 22 23 24 25 26 27 28 29 30 31 32 33 34 35 36 37 38 39 40 41 42 43 44 45 46 47 48 49 50
000
ASUS43 KJKL 272310
RWRJKL

EAST KENTUCKY HOURLY WEATHER ROUNDUP
NATIONAL WEATHER SERVICE JACKSON KY
700 PM EDT WED MAY 27 2015

NOTE: "FAIR" INDICATES FEW OR NO CLOUDS BELOW 12,000 FEET WITH
NO SIGNIFICANT WEATHER AND/OR OBSTRUCTIONS TO VISIBILITY.

* THESE REPORTS ARE NOT UNDER NWS QUALITY CONTROL AND MAY NOT
  REPORT WEATHER SUCH AS PRECIPITATION AND FOG.

KYZ079-080-083-085-087-088-110-112-115-119-120-280000
...EASTERN KENTUCKY...

CITY           SKY/WX    TMP DP  RH WIND       PRES   REMARKS
JACKSON        MOSUNNY   77  62  59 CALM      30.18F
LONDON         CLOUDY    79  60  52 W13G20    30.19S
SOMERSET*      RAIN      63  61  94 NE7       30.22S
MONTICELLO*    CLOUDY    64  64 100 E7        30.22F FOG
MIDDLESBORO*   PTSUNNY   80  64  58 S3        30.17F
HARLAN APT*    CLEAR     79  59  50 CALM      30.19S
HAZARD APT*    CLEAR     79  61  53 NW3       30.18F
BLACK MTN*       N/A     64  59  82 S3          N/A
BIG SANDY*     PTCLDY    81  62  51 W6        30.17S
MOREHEAD APT*  LGT RAIN  66  61  82 SE8       30.17F
$$

KYZ035-036-041-042-044-050-067-078-099-280000
...CENTRAL KENTUCKY...

CITY           SKY/WX    TMP DP  RH WIND       PRES   REMARKS
MT STERLING*   LGT RAIN  64  63  94 SW7       30.18S
FLEMING/MASON* SUNNY     68  59  73 SW8       30.14R
DANVILLE*      LGT RAIN  63  63 100 SE5       30.17F
RICHMOND*      CLOUDY    64  59  82 SW9       30.20F
LEXINGTON      LGT RAIN  65  62  90 S12       30.13F
FRANKFORT      CLOUDY    67  63  87 S6        30.13F
$$

KYZ091>093-OHZ055-061-077-WVZ005-015-034-035-042-280000
...SOUTHERN OHIO/WEST VIRGINIA...

CITY           SKY/WX    TMP DP  RH WIND       PRES   REMARKS
COVINGTON      CLOUDY    76  60  57 SW14G25   30.11R
COLUMBUS       CLOUDY    80  60  50 SW15G23   30.06R
DAYTON         CLOUDY    80  63  55 SW17      30.06S
WILMINGTON     CLOUDY    78  62  57 SW17G23   30.08R
HUNTINGTON     MOSUNNY   80  62  54 SW9       30.13S
CHARLESTON     MOSUNNY   81  61  50 W13       30.13S
PINEVILLE*     SUNNY     78  67  68 MISG      30.23S
BECKLEY        SUNNY     78  56  46 W9        30.22R
BLUEFIELD      MOSUNNY   79  56  45 W7        30.25R
$$

VAZ002-007-008-TNZ017-027-036-066-071-280000
...SOUTHWEST VIRGINIA/EAST TENNESSEE...

CITY           SKY/WX    TMP DP  RH WIND       PRES   REMARKS
WISE*          MOSUNNY   77  54  44 W9        30.25S
JONESVILLE*    PTCLDY    81  59  47 W3        30.21S
ABINGDON*      MOSUNNY   82  57  43 N5        30.22R
BRISTOL        MOSUNNY   83  57  41 VRB7      30.18R
KNOXVILLE      MOSUNNY   82  60  47 NW6       30.15F
OAK RIDGE      PTSUNNY   83  63  50 VRB3      30.17F
CROSSVILLE     PTSUNNY   73  61  65 VRB3      30.22R
NASHVILLE      CLOUDY    71  68  90 S8        30.15R
$$

...KEY TO REMARKS...
VSB - VISIBILITY IN MILES
WCI - WIND CHILL INDEX
HX  - HEAT INDEX

$$



USA.gov is the U.S. government's official web portal to all federal, state and local government web resources and services.